Time,TemperatureF,DewpointF,PressureIn,WindDirection,WindDirectionDegrees,WindSpeedMPH,WindSpeedGustMPH,Humidity,HourlyPrecipIn,Conditions,Clouds,dailyrainin,SoftwareType,DateUTC
2013-02-20 00:00:00,24.3,4.5,0.00,North,5,5.4,19.7,42,0.00,,SKC,0.08,VWS V14.00,2013-02-20 05:00:00,
2013-02-20 00:05:00,24.1,4.3,0.00,NW,304,7.2,7.2,42,0.00,,SKC,0.00,VWS V14.00,2013-02-20 05:05:00,
2013-02-20 00:10:00,24.1,4.3,0.00,NW,306,8.3,8.7,42,0.00,,SKC,0.00,VWS V14.00,2013-02-20 05:10:00,
2013-02-20 00:15:00,24.1,4.3,0.00,WNW,294,7.6,12.8,42,0.00,,SKC,0.00,VWS V14.00,2013-02-20 05:15:00,
2013-02-20 00:20:00,23.9,4.2,0.00,WNW,287,3.6,12.8,42,0.00,,SKC,0.00,VWS V14.00,2013-02-20 05:20:00,
2013-02-20 00:25:00,23.9,4.2,0.00,West,259,4.5,12.8,42,0.00,,SKC,0.00,VWS V14.00,2013-02-20 05:25:00,
2013-02-20 00:30:00,23.9,4.2,0.00,West,278,5.4,12.8,42,0.00,,SKC,0.00,VWS V14.00,2013-02-20 05:30:00,
2013-02-20 00:35:00,23.9,4.2,0.00,NW,305,4.0,12.8,42,0.00,,SKC,0.00,VWS V14.00,2013-02-20 05:35:00,
2013-02-20 00:40:00,23.9,4.2,0.00,WNW,298,3.6,12.8,42,0.00,,SKC,0.00,VWS V14.00,2013-02-20 05:40:00,
2013-02-20 00:45:00,23.9,4.2,0.00,WNW,294,4.0,12.8,42,0.00,,SKC,0.00,VWS V14.00,2013-02-20 05:45:00,
2013-02-20 00:50:00,23.7,4.0,0.00,WNW,286,8.1,12.8,42,0.00,,SKC,0.00,VWS V14.00,2013-02-20 05:50:00,
2013-02-20 00:55:00,23.7,4.0,0.00,West,268,5.8,12.8,42,0.00,,SKC,0.00,VWS V14.00,2013-02-20 05:55:00,
2013-02-20 01:00:00,23.7,4.0,0.00,WNW,288,5.4,12.8,42,0.00,,SKC,0.00,VWS V14.00,2013-02-20 06:00:00,
2013-02-20 01:05:00,23.7,4.0,0.00,WNW,298,5.8,8.7,42,0.00,,SKC,0.00,VWS V14.00,2013-02-20 06:05:00,
2013-02-20 01:10:00,23.7,4.0,0.00,WSW,249,8.3,10.5,42,0.00,,SKC,0.00,VWS V14.00,2013-02-20 06:10:00,
2013-02-20 01:15:00,23.7,4.0,0.00,WNW,293,5.8,12.3,42,0.00,,SKC,0.00,VWS V14.00,2013-02-20 06:15:00,
2013-02-20 01:20:00,23.7,4.0,0.00,WNW,293,8.3,14.5,42,0.00,,SKC,0.00,VWS V14.00,2013-02-20 06:20:00,
2013-02-20 01:25:00,23.7,4.0,0.00,WNW,292,8.3,14.5,42,0.00,,SKC,0.00,VWS V14.00,2013-02-20 06:25:00,
2013-02-20 01:30:00,23.5,3.8,0.00,West,261,11.9,14.5,42,0.00,,SKC,0.00,VWS V14.00,2013-02-20 06:30:00,
2013-02-20 01:35:00,23.5,3.8,0.00,NNW,335,8.1,15.4,42,0.00,,SKC,0.00,VWS V14.00,2013-02-20 06:35:00,
2013-02-20 01:40:00,23.5,3.8,0.00,WNW,297,17.0,17.0,42,0.00,,SKC,0.00,VWS V14.00,2013-02-20 06:40:00,
2013-02-20 01:45:00,23.5,3.8,0.00,West,263,14.5,17.0,42,0.00,,SKC,0.00,VWS V14.00,2013-02-20 06:45:00,
2013-02-20 01:50:00,23.5,3.8,0.00,West,279,10.5,17.0,42,0.00,,SKC,0.00,VWS V14.00,2013-02-20 06:50:00,
2013-02-20 01:55:00,23.2,3.5,0.00,NW,305,15.4,17.0,42,0.00,,SKC,0.00,VWS V14.00,2013-02-20 06:55:00,
2013-02-20 02:00:00,23.2,3.5,0.00,WSW,258,12.8,17.0,42,0.00,,SKC,0.00,VWS V14.00,2013-02-20 07:00:00,
2013-02-20 02:05:00,23.0,3.3,0.00,WSW,241,3.1,12.8,42,0.00,,SKC,0.00,VWS V14.00,2013-02-20 07:05:00,
2013-02-20 02:10:00,22.8,3.2,0.00,WNW,294,8.3,12.8,42,0.00,,SKC,0.00,VWS V14.00,2013-02-20 07:10:00,
2013-02-20 02:15:00,22.8,3.2,0.00,NW,311,8.3,12.8,42,0.00,,SKC,0.00,VWS V14.00,2013-02-20 07:15:00,
2013-02-20 02:20:00,22.6,3.0,0.00,North,3,3.6,12.8,42,0.00,,SKC,0.00,VWS V14.00,2013-02-20 07:20:00,
2013-02-20 02:25:00,22.5,2.8,0.00,West,264,4.0,12.8,42,0.00,,SKC,0.00,VWS V14.00,2013-02-20 07:25:00,
2013-02-20 02:30:00,22.6,3.0,0.00,NNW,337,3.1,12.8,42,0.00,,SKC,0.00,VWS V14.00,2013-02-20 07:30:00,
2013-02-20 02:34:00,22.3,2.7,0.00,NNW,340,4.0,12.8,42,0.00,,SKC,0.00,VWS V14.00,2013-02-20 07:34:00,
2013-02-20 02:39:00,22.1,2.5,0.00,WNW,289,5.8,12.8,42,0.00,,SKC,0.00,VWS V14.00,2013-02-20 07:39:00,
2013-02-20 02:44:00,22.5,2.8,0.00,West,277,6.3,12.8,42,0.00,,SKC,0.00,VWS V14.00,2013-02-20 07:44:00,
2013-02-20 02:49:00,22.5,2.8,0.00,NW,307,4.9,12.8,42,0.00,,SKC,0.00,VWS V14.00,2013-02-20 07:49:00,
2013-02-20 02:54:00,22.6,3.0,0.00,West,281,3.6,12.8,42,0.00,,SKC,0.00,VWS V14.00,2013-02-20 07:54:00,
2013-02-20 02:59:00,22.5,2.8,0.00,WNW,299,6.3,12.8,42,0.00,,SKC,0.00,VWS V14.00,2013-02-20 07:59:00,
2013-02-20 03:05:00,22.5,2.8,0.00,NNW,338,4.0,8.7,42,0.00,,SKC,0.00,VWS V14.00,2013-02-20 08:05:00,
2013-02-20 03:10:00,22.3,2.7,0.00,WSW,250,7.6,8.7,42,0.00,,SKC,0.00,VWS V14.00,2013-02-20 08:10:00,
2013-02-20 03:15:00,22.3,2.7,0.00,NW,318,4.0,8.7,42,0.00,,SKC,0.00,VWS V14.00,2013-02-20 08:15:00,
2013-02-20 03:20:00,22.1,2.5,0.00,WNW,294,3.1,8.7,42,0.00,,SKC,0.00,VWS V14.00,2013-02-20 08:20:00,
2013-02-20 03:25:00,22.1,2.5,0.00,NW,311,3.6,8.7,42,0.00,,SKC,0.00,VWS V14.00,2013-02-20 08:25:00,
2013-02-20 03:30:00,21.9,2.4,0.00,WNW,283,4.0,8.7,42,0.00,,SKC,0.00,VWS V14.00,2013-02-20 08:30:00,
2013-02-20 03:35:00,21.9,2.4,0.00,NW,304,3.6,8.7,42,0.00,,SKC,0.00,VWS V14.00,2013-02-20 08:35:00,
2013-02-20 03:40:00,21.9,2.4,0.00,West,273,3.6,8.7,42,0.00,,SKC,0.00,VWS V14.00,2013-02-20 08:40:00,
2013-02-20 03:45:00,21.7,2.2,0.00,WNW,285,8.1,8.7,42,0.00,,SKC,0.00,VWS V14.00,2013-02-20 08:45:00,
2013-02-20 03:50:00,21.6,2.0,0.00,North,350,3.6,8.7,42,0.00,,SKC,0.00,VWS V14.00,2013-02-20 08:50:00,
2013-02-20 03:55:00,21.4,1.9,0.00,WNW,301,2.7,8.7,42,0.00,,SKC,0.00,VWS V14.00,2013-02-20 08:55:00,
2013-02-20 04:00:00,21.2,2.2,0.00,NW,310,5.4,8.7,43,0.00,,SKC,0.00,VWS V14.00,2013-02-20 09:00:00,
2013-02-20 04:05:00,21.2,2.2,0.00,North,357,8.3,10.1,43,0.00,,SKC,0.00,VWS V14.00,2013-02-20 09:05:00,
2013-02-20 04:09:00,21.0,2.0,0.00,NW,309,6.3,10.1,43,0.00,,SKC,0.00,VWS V14.00,2013-02-20 09:09:00,
2013-02-20 04:14:00,21.0,2.0,0.00,WNW,301,4.0,10.1,43,0.00,,SKC,0.00,VWS V14.00,2013-02-20 09:14:00,
2013-02-20 04:19:00,21.0,2.0,0.00,WNW,300,5.4,10.5,43,0.00,,SKC,0.00,VWS V14.00,2013-02-20 09:19:00,
2013-02-20 04:24:00,21.0,2.0,0.00,West,265,5.8,10.5,43,0.00,,SKC,0.00,VWS V14.00,2013-02-20 09:24:00,
2013-02-20 04:29:00,20.8,1.9,0.00,WNW,285,5.4,10.5,43,0.00,,SKC,0.00,VWS V14.00,2013-02-20 09:29:00,
2013-02-20 04:34:00,21.0,2.0,0.00,West,267,3.1,11.0,43,0.00,,SKC,0.00,VWS V14.00,2013-02-20 09:34:00,
2013-02-20 04:39:00,21.0,2.0,0.00,West,275,8.3,12.3,43,0.00,,SKC,0.00,VWS V14.00,2013-02-20 09:39:00,
2013-02-20 04:44:00,21.0,2.0,0.00,WNW,293,8.1,12.8,43,0.00,,SKC,0.00,VWS V14.00,2013-02-20 09:44:00,
2013-02-20 04:49:00,20.8,1.9,0.00,West,264,9.6,12.8,43,0.00,,SKC,0.00,VWS V14.00,2013-02-20 09:49:00,
2013-02-20 04:54:00,20.7,1.7,0.00,WNW,283,8.3,12.8,43,0.00,,SKC,0.00,VWS V14.00,2013-02-20 09:54:00,
2013-02-20 04:59:00,20.7,1.7,0.00,WNW,291,3.6,12.8,43,0.00,,SKC,0.00,VWS V14.00,2013-02-20 09:59:00,
2013-02-20 05:04:00,20.3,1.4,0.00,WNW,290,4.0,9.6,43,0.00,,SKC,0.00,VWS V14.00,2013-02-20 10:04:00,
2013-02-20 05:09:00,20.1,1.2,0.00,West,280,5.4,9.6,43,0.00,,SKC,0.00,VWS V14.00,2013-02-20 10:09:00,
2013-02-20 05:14:00,19.8,0.9,0.00,West,260,6.3,10.1,43,0.00,,SKC,0.00,VWS V14.00,2013-02-20 10:14:00,
2013-02-20 05:19:00,19.8,0.9,0.00,WNW,284,5.8,10.1,43,0.00,,SKC,0.00,VWS V14.00,2013-02-20 10:19:00,
2013-02-20 05:24:00,19.6,0.7,0.00,WNW,297,4.0,10.1,43,0.00,,SKC,0.00,VWS V14.00,2013-02-20 10:24:00,
2013-02-20 05:29:00,19.2,0.4,0.00,West,272,3.1,10.1,43,0.00,,SKC,0.00,VWS V14.00,2013-02-20 10:29:00,
2013-02-20 05:34:00,19.2,0.4,0.00,WNW,285,5.4,10.1,43,0.00,,SKC,0.00,VWS V14.00,2013-02-20 10:34:00,
2013-02-20 05:39:00,19.0,0.2,0.00,West,281,3.6,10.1,43,0.00,,SKC,0.00,VWS V14.00,2013-02-20 10:39:00,
2013-02-20 05:44:00,19.0,0.2,0.00,West,274,6.3,10.1,43,0.00,,SKC,0.00,VWS V14.00,2013-02-20 10:44:00,
2013-02-20 05:49:00,18.9,0.1,0.00,WNW,291,4.9,10.1,43,0.00,,SKC,0.00,VWS V14.00,2013-02-20 10:49:00,
2013-02-20 05:54:00,18.3,-0.4,0.00,WNW,288,4.0,10.1,43,0.00,,SKC,0.00,VWS V14.00,2013-02-20 10:54:00,
2013-02-20 05:59:00,17.8,-0.9,0.00,WNW,296,6.3,10.1,43,0.00,,SKC,0.00,VWS V14.00,2013-02-20 10:59:00,
2013-02-20 06:04:00,18.0,-0.8,0.00,NW,308,7.6,7.6,43,0.00,,SKC,0.00,VWS V14.00,2013-02-20 11:04:00,
2013-02-20 06:09:00,18.3,-0.4,0.00,WNW,286,8.1,8.1,43,0.00,,SKC,0.00,VWS V14.00,2013-02-20 11:09:00,
2013-02-20 06:14:00,18.3,-0.4,0.00,West,270,5.4,8.7,43,0.00,,SKC,0.00,VWS V14.00,2013-02-20 11:14:00,
2013-02-20 06:19:00,18.3,-0.4,0.00,West,275,4.9,8.7,43,0.00,,SKC,0.00,VWS V14.00,2013-02-20 11:19:00,
2013-02-20 06:24:00,18.1,-0.6,0.00,WNW,292,6.3,8.7,43,0.00,,SKC,0.00,VWS V14.00,2013-02-20 11:24:00,
2013-02-20 06:29:00,18.1,-0.6,0.00,West,267,4.9,8.7,43,0.00,,SKC,0.00,VWS V14.00,2013-02-20 11:29:00,
2013-02-20 06:34:00,18.3,-0.4,0.00,West,273,7.2,10.1,43,0.00,,SKC,0.00,VWS V14.00,2013-02-20 11:34:00,
2013-02-20 06:39:00,18.3,-0.4,0.00,WNW,293,5.4,10.1,43,0.00,,SKC,0.00,VWS V14.00,2013-02-20 11:39:00,
2013-02-20 06:44:00,18.3,-0.4,0.00,WNW,283,4.9,10.1,43,0.00,,SKC,0.00,VWS V14.00,2013-02-20 11:44:00,
2013-02-20 06:49:00,18.5,-0.3,0.00,West,273,8.1,10.1,43,0.00,,SKC,0.00,VWS V14.00,2013-02-20 11:49:00,
2013-02-20 06:54:00,18.5,-0.3,0.00,WNW,301,6.7,10.1,43,0.00,,SKC,0.00,VWS V14.00,2013-02-20 11:54:00,
2013-02-20 06:59:00,18.5,-0.3,0.00,West,266,4.0,10.1,43,0.00,,SKC,0.00,VWS V14.00,2013-02-20 11:59:00,
2013-02-20 07:04:00,18.5,-0.3,0.00,WNW,302,3.6,5.4,43,0.00,,SKC,0.00,VWS V14.00,2013-02-20 12:04:00,
2013-02-20 07:09:00,18.7,-0.1,0.00,NW,307,3.1,5.4,43,0.00,,SKC,0.00,VWS V14.00,2013-02-20 12:09:00,
2013-02-20 07:14:00,18.5,-0.3,0.00,WNW,293,4.0,7.6,43,0.00,,SKC,0.00,VWS V14.00,2013-02-20 12:14:00,
2013-02-20 07:19:00,18.5,-0.3,0.00,WNW,293,3.1,7.6,43,0.00,,SKC,0.00,VWS V14.00,2013-02-20 12:19:00,
2013-02-20 07:24:00,18.3,-0.4,0.00,WNW,300,3.1,7.6,43,0.00,,SKC,0.00,VWS V14.00,2013-02-20 12:24:00,
2013-02-20 07:29:00,18.1,-0.6,0.00,WNW,283,4.9,7.6,43,0.00,,SKC,0.00,VWS V14.00,2013-02-20 12:29:00,
2013-02-20 07:34:00,18.1,-0.6,0.00,WNW,282,3.6,7.6,43,0.00,,SKC,0.00,VWS V14.00,2013-02-20 12:34:00,
2013-02-20 07:39:00,18.1,-0.6,0.00,WNW,299,3.6,7.6,43,0.00,,SKC,0.00,VWS V14.00,2013-02-20 12:39:00,
2013-02-20 07:44:00,18.1,-0.6,0.00,West,270,0.0,7.6,43,0.00,,SKC,0.00,VWS V14.00,2013-02-20 12:44:00,
2013-02-20 07:49:00,18.5,-0.3,0.00,West,262,2.2,7.6,43,0.00,,SKC,0.00,VWS V14.00,2013-02-20 12:49:00,
2013-02-20 07:54:00,18.5,-0.3,0.00,West,274,4.0,8.1,43,0.00,,SKC,0.00,VWS V14.00,2013-02-20 12:54:00,
2013-02-20 07:59:00,18.9,0.1,0.00,West,265,5.4,8.1,43,0.00,,SKC,0.00,VWS V14.00,2013-02-20 12:59:00,
2013-02-20 08:04:00,19.0,0.2,0.00,WNW,285,3.1,5.8,43,0.00,,SKC,0.00,VWS V14.00,2013-02-20 13:04:00,
2013-02-20 08:09:00,19.0,0.2,0.00,West,273,7.6,8.1,43,0.00,,SKC,0.00,VWS V14.00,2013-02-20 13:09:00,
2013-02-20 08:14:00,19.0,0.2,0.00,WSW,251,8.1,8.1,43,0.00,,SKC,0.00,VWS V14.00,2013-02-20 13:14:00,
2013-02-20 08:19:00,19.4,0.6,0.00,WNW,288,6.7,8.1,43,0.00,,SKC,0.00,VWS V14.00,2013-02-20 13:19:00,
2013-02-20 08:24:00,19.0,0.2,0.00,NNW,337,8.7,9.2,43,0.00,,SKC,0.00,VWS V14.00,2013-02-20 13:24:00,
2013-02-20 08:29:00,19.0,0.2,0.00,NW,320,4.0,9.2,43,0.00,,SKC,0.00,VWS V14.00,2013-02-20 13:29:00,
2013-02-20 08:34:00,19.2,0.4,0.00,North,353,5.8,12.3,43,0.00,,SKC,0.00,VWS V14.00,2013-02-20 13:34:00,
2013-02-20 08:39:00,19.4,0.6,0.00,WNW,286,8.3,12.3,43,0.00,,SKC,0.00,VWS V14.00,2013-02-20 13:39:00,
2013-02-20 08:44:00,19.4,0.6,0.00,West,263,5.4,12.3,43,0.00,,SKC,0.00,VWS V14.00,2013-02-20 13:44:00,
2013-02-20 08:49:00,18.7,-0.1,0.00,NNW,337,5.4,12.3,43,0.00,,SKC,0.00,VWS V14.00,2013-02-20 13:49:00,
2013-02-20 08:54:00,18.5,-0.3,0.00,NW,305,5.8,12.3,43,0.00,,SKC,0.00,VWS V14.00,2013-02-20 13:54:00,
2013-02-20 08:59:00,19.0,0.2,0.00,WNW,285,4.0,12.3,43,0.00,,SKC,0.00,VWS V14.00,2013-02-20 13:59:00,
2013-02-20 09:04:00,19.6,0.7,0.00,NW,321,2.7,8.7,43,0.00,,SKC,0.00,VWS V14.00,2013-02-20 14:04:00,
2013-02-20 09:09:00,20.5,1.5,0.00,NNW,335,6.3,8.7,43,0.00,,SKC,0.00,VWS V14.00,2013-02-20 14:09:00,
2013-02-20 09:14:00,20.8,1.9,0.00,North,0,5.4,8.7,43,0.00,,SKC,0.00,VWS V14.00,2013-02-20 14:14:00,
2013-02-20 09:19:00,20.7,1.7,0.00,NW,326,5.8,8.7,43,0.00,,SKC,0.00,VWS V14.00,2013-02-20 14:19:00,
2013-02-20 09:24:00,20.1,1.2,0.00,NNW,339,5.8,8.7,43,0.00,,SKC,0.00,VWS V14.00,2013-02-20 14:24:00,
2013-02-20 09:29:00,20.3,1.4,0.00,NNW,330,4.5,8.7,43,0.00,,SKC,0.00,VWS V14.00,2013-02-20 14:29:00,
2013-02-20 09:34:00,20.5,1.5,0.00,NNW,331,4.9,8.7,43,0.00,,SKC,0.00,VWS V14.00,2013-02-20 14:34:00,
2013-02-20 09:39:00,20.1,1.2,0.00,NNW,344,5.8,8.7,43,0.00,,SKC,0.00,VWS V14.00,2013-02-20 14:39:00,
2013-02-20 09:44:00,20.3,1.4,0.00,North,10,4.9,8.7,43,0.00,,SKC,0.00,VWS V14.00,2013-02-20 14:44:00,
2013-02-20 09:49:00,20.7,1.7,0.00,NW,321,5.4,11.0,43,0.00,,SKC,0.00,VWS V14.00,2013-02-20 14:49:00,
2013-02-20 09:54:00,20.8,1.9,0.00,North,357,4.0,11.0,43,0.00,,SKC,0.00,VWS V14.00,2013-02-20 14:54:00,
2013-02-20 09:59:00,21.2,2.2,0.00,WNW,286,3.6,11.0,43,0.00,,SKC,0.00,VWS V14.00,2013-02-20 14:59:00,
2013-02-20 10:04:00,21.6,2.0,0.00,North,353,4.9,8.7,42,0.00,,SKC,0.00,VWS V14.00,2013-02-20 15:04:00,
2013-02-20 10:09:00,22.3,2.7,0.00,North,353,4.0,8.7,42,0.00,,SKC,0.00,VWS V14.00,2013-02-20 15:09:00,
2013-02-20 10:14:00,22.8,3.2,0.00,West,266,3.6,8.7,42,0.00,,SKC,0.00,VWS V14.00,2013-02-20 15:14:00,
2013-02-20 10:19:00,22.6,3.0,0.00,NW,325,6.3,9.2,42,0.00,,SKC,0.00,VWS V14.00,2013-02-20 15:19:00,
2013-02-20 10:24:00,22.8,3.2,0.00,WNW,295,2.7,9.2,42,0.00,,SKC,0.00,VWS V14.00,2013-02-20 15:24:00,
2013-02-20 10:29:00,23.2,3.5,0.00,NNW,329,6.3,9.2,42,0.00,,SKC,0.00,VWS V14.00,2013-02-20 15:29:00,
2013-02-20 10:34:00,23.5,3.8,0.00,NNW,337,6.3,9.2,42,0.00,,SKC,0.00,VWS V14.00,2013-02-20 15:34:00,
2013-02-20 10:39:00,24.1,4.3,0.00,NNW,346,8.3,10.1,42,0.00,,SKC,0.00,VWS V14.00,2013-02-20 15:39:00,
2013-02-20 10:44:00,23.9,4.2,0.00,WNW,300,6.3,10.1,42,0.00,,SKC,0.00,VWS V14.00,2013-02-20 15:44:00,
2013-02-20 10:49:00,24.3,4.5,0.00,North,357,8.3,10.1,42,0.00,,SKC,0.00,VWS V14.00,2013-02-20 15:49:00,
2013-02-20 10:54:00,25.2,5.3,0.00,WNW,303,3.1,10.1,42,0.00,,SKC,0.00,VWS V14.00,2013-02-20 15:54:00,
2013-02-20 10:59:00,25.2,5.3,0.00,WNW,284,4.0,10.1,42,0.00,,SKC,0.00,VWS V14.00,2013-02-20 15:59:00,
2013-02-20 11:04:00,25.9,6.0,0.00,NNW,334,6.7,9.6,42,0.00,,SKC,0.00,VWS V14.00,2013-02-20 16:04:00,
2013-02-20 11:09:00,27.5,6.9,0.00,NW,314,6.3,9.6,41,0.00,,SKC,0.00,VWS V14.00,2013-02-20 16:09:00,
2013-02-20 11:14:00,25.9,6.0,0.00,NW,321,4.0,9.6,42,0.00,,SKC,0.00,VWS V14.00,2013-02-20 16:14:00,
2013-02-20 11:19:00,26.8,6.2,0.00,WNW,297,5.8,9.6,41,0.00,,SKC,0.00,VWS V14.00,2013-02-20 16:19:00,
2013-02-20 11:24:00,25.9,6.0,0.00,North,357,5.8,9.6,42,0.00,,SKC,0.00,VWS V14.00,2013-02-20 16:24:00,
2013-02-20 11:29:00,25.3,5.5,0.00,WNW,287,3.6,9.6,42,0.00,,SKC,0.00,VWS V14.00,2013-02-20 16:29:00,
2013-02-20 11:34:00,26.4,6.4,0.00,NW,310,6.3,11.4,42,0.00,,SKC,0.00,VWS V14.00,2013-02-20 16:34:00,
2013-02-20 11:39:00,25.3,5.5,0.00,NW,325,5.8,11.4,42,0.00,,SKC,0.00,VWS V14.00,2013-02-20 16:39:00,
2013-02-20 11:44:00,25.9,6.0,0.00,North,357,5.8,11.4,42,0.00,,SKC,0.00,VWS V14.00,2013-02-20 16:44:00,
2013-02-20 11:49:00,26.6,6.6,0.00,WNW,298,6.3,11.4,42,0.00,,SKC,0.00,VWS V14.00,2013-02-20 16:49:00,
2013-02-20 11:54:00,27.1,6.6,0.00,WNW,296,5.4,11.4,41,0.00,,SKC,0.00,VWS V14.00,2013-02-20 16:54:00,
2013-02-20 11:59:00,27.9,7.2,0.00,NW,313,4.0,11.4,41,0.00,,SKC,0.00,VWS V14.00,2013-02-20 16:59:00,
2013-02-20 12:04:00,27.9,7.2,0.00,NNW,342,3.6,8.3,41,0.00,,SKC,0.00,VWS V14.00,2013-02-20 17:04:00,
2013-02-20 12:09:00,27.1,6.6,0.00,West,263,5.8,8.3,41,0.00,,SKC,0.00,VWS V14.00,2013-02-20 17:09:00,
2013-02-20 12:14:00,28.6,7.9,0.00,NNW,342,4.0,8.3,41,0.00,,SKC,0.00,VWS V14.00,2013-02-20 17:14:00,
2013-02-20 12:19:00,28.2,7.6,0.00,North,353,3.6,10.1,41,0.00,,SKC,0.00,VWS V14.00,2013-02-20 17:19:00,
2013-02-20 12:24:00,27.7,7.1,0.00,NW,307,3.6,10.1,41,0.00,,SKC,0.00,VWS V14.00,2013-02-20 17:24:00,
2013-02-20 12:29:00,28.2,7.6,0.00,NNW,341,4.0,10.1,41,0.00,,SKC,0.00,VWS V14.00,2013-02-20 17:29:00,
2013-02-20 12:34:00,28.2,7.6,0.00,North,357,5.4,10.1,41,0.00,,SKC,0.00,VWS V14.00,2013-02-20 17:34:00,
2013-02-20 12:39:00,30.4,9.0,0.00,NNW,327,4.0,10.1,40,0.00,,SKC,0.00,VWS V14.00,2013-02-20 17:39:00,
2013-02-20 12:44:00,30.7,9.3,0.00,NNW,344,6.3,10.5,40,0.00,,SKC,0.00,VWS V14.00,2013-02-20 17:44:00,
2013-02-20 12:49:00,31.1,9.6,0.00,WNW,285,5.8,10.5,40,0.00,,SKC,0.00,VWS V14.00,2013-02-20 17:49:00,
2013-02-20 12:54:00,31.1,9.6,0.00,West,275,2.7,10.5,40,0.00,,SKC,0.00,VWS V14.00,2013-02-20 17:54:00,
2013-02-20 12:59:00,30.0,9.2,0.00,WNW,293,7.6,10.5,41,0.00,,SKC,0.00,VWS V14.00,2013-02-20 17:59:00,
2013-02-20 13:04:00,29.8,9.0,0.00,NW,321,3.6,8.1,41,0.00,,SKC,0.00,VWS V14.00,2013-02-20 18:04:00,
2013-02-20 13:09:00,28.6,7.9,0.00,WNW,297,6.3,13.2,41,0.00,,SKC,0.00,VWS V14.00,2013-02-20 18:09:00,
2013-02-20 13:14:00,29.5,8.7,0.00,North,353,6.3,13.2,41,0.00,,SKC,0.00,VWS V14.00,2013-02-20 18:14:00,
2013-02-20 13:19:00,30.7,9.3,0.00,West,279,4.0,13.2,40,0.00,,SKC,0.00,VWS V14.00,2013-02-20 18:19:00,
2013-02-20 13:24:00,30.6,9.1,0.00,WNW,300,5.4,13.2,40,0.00,,SKC,0.00,VWS V14.00,2013-02-20 18:24:00,
2013-02-20 13:29:00,31.1,9.6,0.00,North,3,8.7,13.2,40,0.00,,SKC,0.00,VWS V14.00,2013-02-20 18:29:00,
2013-02-20 13:34:00,32.2,10.6,0.00,North,353,4.0,13.2,40,0.00,,SKC,0.00,VWS V14.00,2013-02-20 18:34:00,
2013-02-20 13:39:00,31.6,10.1,0.00,West,276,7.6,13.2,40,0.00,,SKC,0.00,VWS V14.00,2013-02-20 18:39:00,
2013-02-20 13:44:00,31.1,9.6,0.00,WNW,295,2.7,13.2,40,0.00,,SKC,0.00,VWS V14.00,2013-02-20 18:44:00,
2013-02-20 13:49:00,31.8,10.3,0.00,West,270,3.6,13.2,40,0.00,,SKC,0.00,VWS V14.00,2013-02-20 18:49:00,
2013-02-20 13:54:00,33.1,11.4,0.00,WNW,285,4.0,13.2,40,0.00,,SKC,0.00,VWS V14.00,2013-02-20 18:54:00,
2013-02-20 13:59:00,33.6,11.9,0.00,SSW,200,2.2,13.2,40,0.00,,SKC,0.00,VWS V14.00,2013-02-20 18:59:00,
2013-02-20 14:04:00,33.3,11.6,0.00,NNW,337,3.6,8.1,40,0.00,,SKC,0.00,VWS V14.00,2013-02-20 19:04:00,
2013-02-20 14:09:00,32.5,10.9,0.00,NW,304,7.6,8.1,40,0.00,,SKC,0.00,VWS V14.00,2013-02-20 19:09:00,
2013-02-20 14:14:00,32.2,10.6,0.00,WNW,289,5.4,10.5,40,0.00,,SKC,0.00,VWS V14.00,2013-02-20 19:14:00,
2013-02-20 14:19:00,31.8,10.3,0.00,WNW,282,5.4,10.5,40,0.00,,SKC,0.00,VWS V14.00,2013-02-20 19:19:00,
2013-02-20 14:24:00,35.1,13.2,0.00,South,191,3.1,10.5,40,0.00,,SKC,0.00,VWS V14.00,2013-02-20 19:24:00,
2013-02-20 14:29:00,33.4,11.7,0.00,WNW,290,5.4,10.5,40,0.00,,SKC,0.00,VWS V14.00,2013-02-20 19:29:00,
2013-02-20 14:34:00,33.8,12.1,0.00,North,9,2.7,10.5,40,0.00,,SKC,0.00,VWS V14.00,2013-02-20 19:34:00,
2013-02-20 14:39:00,34.3,12.5,0.00,NNW,346,3.1,10.5,40,0.00,,SKC,0.00,VWS V14.00,2013-02-20 19:39:00,
2013-02-20 14:44:00,37.4,14.7,0.00,NNW,348,3.1,10.5,39,0.00,,SKC,0.00,VWS V14.00,2013-02-20 19:44:00,
2013-02-20 14:49:00,37.2,15.1,0.00,WNW,303,4.0,10.5,40,0.00,,SKC,0.00,VWS V14.00,2013-02-20 19:49:00,
2013-02-20 14:54:00,37.0,15.0,0.00,WNW,298,3.6,10.5,40,0.00,,SKC,0.00,VWS V14.00,2013-02-20 19:54:00,
2013-02-20 14:59:00,35.8,13.8,0.00,North,357,7.6,10.5,40,0.00,,SKC,0.00,VWS V14.00,2013-02-20 19:59:00,
2013-02-20 15:04:00,35.4,13.5,0.00,North,353,8.3,8.3,40,0.00,,SKC,0.00,VWS V14.00,2013-02-20 20:04:00,
2013-02-20 15:09:00,34.9,13.0,0.00,NW,313,3.6,8.3,40,0.00,,SKC,0.00,VWS V14.00,2013-02-20 20:09:00,
2013-02-20 15:14:00,34.9,13.0,0.00,NNW,331,5.4,8.3,40,0.00,,SKC,0.00,VWS V14.00,2013-02-20 20:14:00,
2013-02-20 15:19:00,34.5,12.7,0.00,NNW,342,7.6,10.1,40,0.00,,SKC,0.00,VWS V14.00,2013-02-20 20:19:00,
2013-02-20 15:24:00,34.3,12.5,0.00,West,259,5.8,10.1,40,0.00,,SKC,0.00,VWS V14.00,2013-02-20 20:24:00,
2013-02-20 15:29:00,34.7,12.9,0.00,WNW,293,5.4,10.1,40,0.00,,SKC,0.00,VWS V14.00,2013-02-20 20:29:00,
2013-02-20 15:34:00,34.5,12.7,0.00,WNW,296,3.6,10.1,40,0.00,,SKC,0.00,VWS V14.00,2013-02-20 20:34:00,
2013-02-20 15:39:00,35.6,13.7,0.00,SSW,201,3.1,10.1,40,0.00,,SKC,0.00,VWS V14.00,2013-02-20 20:39:00,
2013-02-20 15:44:00,35.8,13.8,0.00,SW,223,2.7,10.1,40,0.00,,SKC,0.00,VWS V14.00,2013-02-20 20:44:00,
2013-02-20 15:49:00,36.0,14.0,0.00,North,1,2.7,10.1,40,0.00,,SKC,0.00,VWS V14.00,2013-02-20 20:49:00,
2013-02-20 15:54:00,35.8,13.8,0.00,NW,322,3.6,10.1,40,0.00,,SKC,0.00,VWS V14.00,2013-02-20 20:54:00,
2013-02-20 15:59:00,35.1,13.2,0.00,NNW,346,5.8,10.1,40,0.00,,SKC,0.00,VWS V14.00,2013-02-20 20:59:00,
2013-02-20 16:04:00,35.4,13.5,0.00,West,267,4.0,6.3,40,0.00,,SKC,0.00,VWS V14.00,2013-02-20 21:04:00,
2013-02-20 16:09:00,35.1,13.2,0.00,NW,321,5.8,10.5,40,0.00,,SKC,0.00,VWS V14.00,2013-02-20 21:09:00,
2013-02-20 16:14:00,35.6,13.7,0.00,NNW,335,5.4,10.5,40,0.00,,SKC,0.00,VWS V14.00,2013-02-20 21:14:00,
2013-02-20 16:19:00,35.6,13.7,0.00,NNE,23,2.7,10.5,40,0.00,,SKC,0.00,VWS V14.00,2013-02-20 21:19:00,
2013-02-20 16:24:00,35.4,13.5,0.00,WNW,289,7.6,10.5,40,0.00,,SKC,0.00,VWS V14.00,2013-02-20 21:24:00,
2013-02-20 16:29:00,34.2,12.4,0.00,West,267,10.1,10.5,40,0.00,,SKC,0.00,VWS V14.00,2013-02-20 21:29:00,
2013-02-20 16:34:00,33.3,11.6,0.00,WNW,288,0.0,10.5,40,0.00,,SKC,0.00,VWS V14.00,2013-02-20 21:34:00,
2013-02-20 16:39:00,33.6,11.9,0.00,WNW,292,2.7,10.5,40,0.00,,SKC,0.00,VWS V14.00,2013-02-20 21:39:00,
2013-02-20 16:44:00,33.4,11.7,0.00,NNW,334,5.4,10.5,40,0.00,,SKC,0.00,VWS V14.00,2013-02-20 21:44:00,
2013-02-20 16:49:00,32.5,10.9,0.00,NNW,336,7.6,10.5,40,0.00,,SKC,0.00,VWS V14.00,2013-02-20 21:49:00,
2013-02-20 16:54:00,31.5,9.9,0.00,West,261,3.6,10.5,40,0.00,,SKC,0.00,VWS V14.00,2013-02-20 21:54:00,
2013-02-20 16:59:00,31.5,9.9,0.00,North,11,2.2,10.5,40,0.00,,SKC,0.00,VWS V14.00,2013-02-20 21:59:00,
2013-02-20 17:04:00,31.6,10.1,0.00,North,353,2.7,7.2,40,0.00,,SKC,0.00,VWS V14.00,2013-02-20 22:04:00,
2013-02-20 17:09:00,31.8,10.3,0.00,NNW,344,5.8,7.6,40,0.00,,SKC,0.00,VWS V14.00,2013-02-20 22:09:00,
2013-02-20 17:14:00,31.3,9.8,0.00,NNW,336,5.8,7.6,40,0.00,,SKC,0.00,VWS V14.00,2013-02-20 22:14:00,
2013-02-20 17:19:00,30.4,9.0,0.00,North,357,0.0,7.6,40,0.00,,SKC,0.00,VWS V14.00,2013-02-20 22:19:00,
2013-02-20 17:23:00,29.5,8.7,0.00,NNE,23,3.1,7.6,41,0.00,,SKC,0.00,VWS V14.00,2013-02-20 22:23:00,
2013-02-20 17:28:00,28.9,8.2,0.00,NNE,33,2.7,7.6,41,0.00,,SKC,0.00,VWS V14.00,2013-02-20 22:28:00,
2013-02-20 17:33:00,28.2,7.6,0.00,North,7,0.0,7.6,41,0.00,,SKC,0.00,VWS V14.00,2013-02-20 22:33:00,
2013-02-20 17:38:00,27.9,7.2,0.00,NNW,337,4.0,7.6,41,0.00,,SKC,0.00,VWS V14.00,2013-02-20 22:38:00,
2013-02-20 17:43:00,27.5,6.9,0.00,NNW,346,4.0,8.3,41,0.00,,SKC,0.00,VWS V14.00,2013-02-20 22:43:00,
2013-02-20 17:48:00,27.0,6.4,0.00,NNW,327,4.0,8.3,41,0.00,,SKC,0.00,VWS V14.00,2013-02-20 22:48:00,
2013-02-20 17:53:00,26.8,6.2,0.00,NNW,331,6.3,8.3,41,0.00,,SKC,0.00,VWS V14.00,2013-02-20 22:53:00,
2013-02-20 17:59:00,26.6,6.6,0.00,NNW,328,2.7,8.3,42,0.00,,SKC,0.00,VWS V14.00,2013-02-20 22:59:00,
2013-02-20 18:04:00,26.2,6.3,0.00,NNW,334,4.0,6.3,42,0.00,,SKC,0.00,VWS V14.00,2013-02-20 23:04:00,
2013-02-20 18:08:00,25.9,6.0,0.00,NNW,346,3.6,6.3,42,0.00,,SKC,0.00,VWS V14.00,2013-02-20 23:08:00,
2013-02-20 18:13:00,25.7,5.8,0.00,NNW,341,5.4,6.3,42,0.00,,SKC,0.00,VWS V14.00,2013-02-20 23:13:00,
2013-02-20 18:18:00,25.3,5.5,0.00,NNW,340,4.0,6.3,42,0.00,,SKC,0.00,VWS V14.00,2013-02-20 23:18:00,
2013-02-20 18:23:00,25.2,5.3,0.00,NNW,345,4.0,6.3,42,0.00,,SKC,0.00,VWS V14.00,2013-02-20 23:23:00,
2013-02-20 18:28:00,25.0,5.1,0.00,NW,322,5.4,7.2,42,0.00,,SKC,0.00,VWS V14.00,2013-02-20 23:28:00,
2013-02-20 18:33:00,24.8,5.0,0.00,North,353,3.6,7.2,42,0.00,,SKC,0.00,VWS V14.00,2013-02-20 23:33:00,
2013-02-20 18:38:00,24.4,4.7,0.00,North,353,2.2,7.2,42,0.00,,SKC,0.00,VWS V14.00,2013-02-20 23:38:00,
2013-02-20 18:43:00,24.4,4.7,0.00,North,349,2.7,7.2,42,0.00,,SKC,0.00,VWS V14.00,2013-02-20 23:43:00,
2013-02-20 18:48:00,24.3,4.5,0.00,NNW,348,0.0,7.2,42,0.00,,SKC,0.00,VWS V14.00,2013-02-20 23:48:00,
2013-02-20 18:53:00,24.1,4.3,0.00,NNW,344,4.9,7.2,42,0.00,,SKC,0.00,VWS V14.00,2013-02-20 23:53:00,
2013-02-20 18:58:00,23.9,4.2,0.00,NNW,344,0.0,7.2,42,0.00,,SKC,0.00,VWS V14.00,2013-02-20 23:58:00,
2013-02-20 19:03:00,23.7,4.0,0.00,NNW,332,0.0,4.0,42,0.00,,SKC,0.00,VWS V14.00,2013-02-21 00:03:00,
2013-02-20 19:08:00,23.7,4.0,0.00,North,350,2.2,4.0,42,0.00,,SKC,0.00,VWS V14.00,2013-02-21 00:08:00,
2013-02-20 19:13:00,23.7,4.0,0.00,NNW,341,2.2,6.3,42,0.00,,SKC,0.00,VWS V14.00,2013-02-21 00:13:00,
2013-02-20 19:18:00,23.7,4.0,0.00,NNW,332,3.1,6.3,42,0.00,,SKC,0.00,VWS V14.00,2013-02-21 00:18:00,
2013-02-20 19:23:00,23.9,4.2,0.00,North,0,2.7,6.3,42,0.00,,SKC,0.00,VWS V14.00,2013-02-21 00:23:00,
2013-02-20 19:28:00,23.9,4.2,0.00,NNW,338,0.0,6.3,42,0.00,,SKC,0.00,VWS V14.00,2013-02-21 00:28:00,
2013-02-20 19:33:00,23.9,4.2,0.00,North,8,3.6,6.3,42,0.00,,SKC,0.00,VWS V14.00,2013-02-21 00:33:00,
2013-02-20 19:38:00,24.1,4.3,0.00,NNW,340,0.0,6.3,42,0.00,,SKC,0.00,VWS V14.00,2013-02-21 00:38:00,
2013-02-20 19:43:00,23.9,4.2,0.00,NNW,345,2.2,6.3,42,0.00,,SKC,0.00,VWS V14.00,2013-02-21 00:43:00,
2013-02-20 19:48:00,23.9,4.2,0.00,NNW,337,0.0,6.3,42,0.00,,SKC,0.00,VWS V14.00,2013-02-21 00:48:00,
2013-02-20 19:53:00,23.9,4.2,0.00,North,0,0.0,6.3,42,0.00,,SKC,0.00,VWS V14.00,2013-02-21 00:53:00,
2013-02-20 19:58:00,23.9,4.2,0.00,North,349,0.0,6.3,42,0.00,,SKC,0.00,VWS V14.00,2013-02-21 00:58:00,
2013-02-20 20:03:00,23.7,4.0,0.00,NNW,340,3.1,5.8,42,0.00,,SKC,0.00,VWS V14.00,2013-02-21 01:03:00,
2013-02-20 20:08:00,23.5,3.8,0.00,North,353,0.0,5.8,42,0.00,,SKC,0.00,VWS V14.00,2013-02-21 01:08:00,
2013-02-20 20:13:00,23.5,3.8,0.00,NNW,330,0.0,6.3,42,0.00,,SKC,0.00,VWS V14.00,2013-02-21 01:13:00,
2013-02-20 20:18:00,23.4,3.7,0.00,NNW,327,0.0,6.3,42,0.00,,SKC,0.00,VWS V14.00,2013-02-21 01:18:00,
2013-02-20 20:23:00,23.4,3.7,0.00,NNW,328,0.0,6.3,42,0.00,,SKC,0.00,VWS V14.00,2013-02-21 01:23:00,
2013-02-20 20:28:00,23.2,3.5,0.00,NNW,329,0.0,6.3,42,0.00,,SKC,0.00,VWS V14.00,2013-02-21 01:28:00,
2013-02-20 20:33:00,23.0,3.3,0.00,NNW,329,2.7,6.3,42,0.00,,SKC,0.00,VWS V14.00,2013-02-21 01:33:00,
2013-02-20 20:38:00,23.0,3.3,0.00,NNW,329,0.0,6.3,42,0.00,,SKC,0.00,VWS V14.00,2013-02-21 01:38:00,
2013-02-20 20:43:00,23.0,3.3,0.00,NNW,329,0.0,6.3,42,0.00,,SKC,0.00,VWS V14.00,2013-02-21 01:43:00,
2013-02-20 20:48:00,23.0,3.3,0.00,NNW,330,0.0,6.3,42,0.00,,SKC,0.00,VWS V14.00,2013-02-21 01:48:00,
2013-02-20 20:53:00,23.0,3.3,0.00,NNW,346,0.0,6.3,42,0.00,,SKC,0.00,VWS V14.00,2013-02-21 01:53:00,
2013-02-20 20:58:00,23.0,3.3,0.00,NNW,346,0.0,6.3,42,0.00,,SKC,0.00,VWS V14.00,2013-02-21 01:58:00,
2013-02-20 21:03:00,23.2,3.5,0.00,NE,42,0.0,2.2,42,0.00,,SKC,0.00,VWS V14.00,2013-02-21 02:03:00,
2013-02-20 21:08:00,23.2,3.5,0.00,NNW,342,4.0,4.0,42,0.00,,SKC,0.00,VWS V14.00,2013-02-21 02:08:00,
2013-02-20 21:13:00,23.2,3.5,0.00,North,353,0.0,5.8,42,0.00,,SKC,0.00,VWS V14.00,2013-02-21 02:13:00,
2013-02-20 21:18:00,22.8,3.2,0.00,North,353,2.7,5.8,42,0.00,,SKC,0.00,VWS V14.00,2013-02-21 02:18:00,
2013-02-20 21:23:00,22.8,3.2,0.00,North,353,0.0,5.8,42,0.00,,SKC,0.00,VWS V14.00,2013-02-21 02:23:00,
2013-02-20 21:28:00,22.8,3.2,0.00,NNW,345,3.6,5.8,42,0.00,,SKC,0.00,VWS V14.00,2013-02-21 02:28:00,
2013-02-20 21:33:00,22.6,3.0,0.00,NNW,345,2.2,5.8,42,0.00,,SKC,0.00,VWS V14.00,2013-02-21 02:33:00,
2013-02-20 21:38:00,22.1,2.5,0.00,North,353,0.0,5.8,42,0.00,,SKC,0.00,VWS V14.00,2013-02-21 02:38:00,
2013-02-20 21:43:00,21.9,2.4,0.00,North,353,2.7,5.8,42,0.00,,SKC,0.00,VWS V14.00,2013-02-21 02:43:00,
2013-02-20 21:48:00,21.6,2.0,0.00,North,353,0.0,5.8,42,0.00,,SKC,0.00,VWS V14.00,2013-02-21 02:48:00,
2013-02-20 21:53:00,21.2,2.2,0.00,North,353,0.0,5.8,43,0.00,,SKC,0.00,VWS V14.00,2013-02-21 02:53:00,
2013-02-20 21:58:00,21.2,2.2,0.00,North,353,0.0,5.8,43,0.00,,SKC,0.00,VWS V14.00,2013-02-21 02:58:00,
2013-02-20 22:03:00,21.2,2.2,0.00,North,353,0.0,5.8,43,0.00,,SKC,0.00,VWS V14.00,2013-02-21 03:03:00,
2013-02-20 22:08:00,21.4,1.9,0.00,North,353,0.0,5.8,42,0.00,,SKC,0.00,VWS V14.00,2013-02-21 03:08:00,
2013-02-20 22:13:00,21.6,2.0,0.00,North,353,0.0,5.8,42,0.00,,SKC,0.00,VWS V14.00,2013-02-21 03:13:00,
2013-02-20 22:18:00,21.6,2.0,0.00,North,353,0.0,5.8,42,0.00,,SKC,0.00,VWS V14.00,2013-02-21 03:18:00,
2013-02-20 22:23:00,21.4,1.9,0.00,North,353,0.0,5.8,42,0.00,,SKC,0.00,VWS V14.00,2013-02-21 03:23:00,
2013-02-20 22:28:00,21.4,1.9,0.00,North,353,0.0,5.8,42,0.00,,SKC,0.00,VWS V14.00,2013-02-21 03:28:00,
2013-02-20 22:33:00,21.2,2.2,0.00,North,353,2.2,5.8,43,0.00,,SKC,0.00,VWS V14.00,2013-02-21 03:33:00,
2013-02-20 22:38:00,21.2,2.2,0.00,North,353,2.2,5.8,43,0.00,,SKC,0.00,VWS V14.00,2013-02-21 03:38:00,
2013-02-20 22:43:00,21.2,2.2,0.00,West,278,0.0,5.8,43,0.00,,SKC,0.00,VWS V14.00,2013-02-21 03:43:00,
2013-02-20 22:48:00,21.2,2.2,0.00,WNW,301,0.0,5.8,43,0.00,,SKC,0.00,VWS V14.00,2013-02-21 03:48:00,
2013-02-20 22:53:00,21.0,2.0,0.00,ENE,69,2.2,5.8,43,0.00,,SKC,0.00,VWS V14.00,2013-02-21 03:53:00,
2013-02-20 22:58:00,21.0,2.0,0.00,NE,43,0.0,5.8,43,0.00,,SKC,0.00,VWS V14.00,2013-02-21 03:58:00,
2013-02-20 23:03:00,21.0,2.0,0.00,North,7,0.0,3.1,43,0.00,,SKC,0.00,VWS V14.00,2013-02-21 04:03:00,
2013-02-20 23:08:00,21.0,2.0,0.00,ENE,73,0.0,4.0,43,0.00,,SKC,0.00,VWS V14.00,2013-02-21 04:08:00,
2013-02-20 23:13:00,21.2,2.2,0.00,East,85,0.0,4.0,43,0.00,,SKC,0.00,VWS V14.00,2013-02-21 04:13:00,
2013-02-20 23:18:00,20.8,1.9,0.00,NE,48,0.0,4.0,43,0.00,,SKC,0.00,VWS V14.00,2013-02-21 04:18:00,
2013-02-20 23:23:00,20.7,1.7,0.00,ENE,76,3.1,4.0,43,0.00,,SKC,0.00,VWS V14.00,2013-02-21 04:23:00,
2013-02-20 23:28:00,20.7,1.7,0.00,ENE,74,0.0,4.0,43,0.00,,SKC,0.00,VWS V14.00,2013-02-21 04:28:00,
2013-02-20 23:33:00,20.5,1.5,0.00,ENE,74,0.0,4.0,43,0.00,,SKC,0.00,VWS V14.00,2013-02-21 04:33:00,
2013-02-20 23:38:00,20.3,1.4,0.00,ENE,74,0.0,4.0,43,0.00,,SKC,0.00,VWS V14.00,2013-02-21 04:38:00,
2013-02-20 23:43:00,19.9,1.1,0.00,ENE,72,0.0,4.0,43,0.00,,SKC,0.00,VWS V14.00,2013-02-21 04:43:00,
2013-02-20 23:48:00,20.1,1.2,0.00,ENE,72,0.0,4.0,43,0.00,,SKC,0.00,VWS V14.00,2013-02-21 04:48:00,
2013-02-20 23:53:00,19.9,1.1,0.00,East,86,0.0,4.0,43,0.00,,SKC,0.00,VWS V14.00,2013-02-21 04:53:00,
2013-02-20 23:58:00,19.9,1.1,0.00,ENE,59,0.0,4.9,43,0.00,,SKC,0.00,VWS V14.00,2013-02-21 04:58:00,